Dauntless Aviation
Greetings, Guest! To participate, [sign up for a free account] or [log in]
Airports South America Argentina
SABE
AEP

Aeroparque Jorge Newbery

Buenos Aires, ARGENTINA

Airport Info
Edit

Location

Latitude / Longitude: 34°33'33"S / 58°24'56"W
  34°33.552'S / 58°24.936'W
  -34.5592 / -58.4156

Nearby radio navigation aids

FDO SAN FERNANDO VOR/DME. 132.7° 10.6nm from FDO to field.
OP AEROPARQUE JORGE NEWBERY NDB. 131.1° 4.3nm from OP to field.

Runway Information

Runway 13 /31

Dimensions: 6890 x 131 ft.
Surface: ASP
 
Runway 13
Runway 31
Latitude: -34.553942 -34.563844
Longitude: -58.425247 -58.407506
Elevation: 18 ft. 18 ft.
Runway true heading: 126.3 306.3
 

Instrument Procedures

STARs (Standard Terminal Arrivals)

  STAR Rwy 13/16 PAGON7C SANANTONIO7C ASADA7C VALOS8C
  STAR Rwy 13/16 SURBO7A SARGO7C KOVUK7C TENIL7C BELGRANO7C
  STAR Rwy 31 SURBO2B SARGO7D KOVUK7D TENIL7D BELGRANO7D VALOS7D ASADA7D
  STAR Rwy 31 PAGON7D SANANTONIO7D

IAPs (Instrument Approach Procedures)

  VOR (DME) ILS (DME) Rwy 13 (From VANAR)
  VOR (DME) ILS (DME) Rwy 13
  LI ILS (DME) Rwy 13
  VOR (DME) LO LI Rwy 13 (From VANAR)
  LI LO LI Rwy 13
  LI Rwy 13 (From QUILMES)
  LI Rwy 31

Departure Procedures

  SID Rwy 13/31
  SID Rwy 13/31 Textual Description
  SID Rwy 13/31 LANDA3B BIVAM3B ATOVO3B
  SID 13/31 LANDA3B BIVAM3B ATOVO3B Textual Description
  SID Rwy 13/31 KUKEN7 SUROBO7 DORVO7 LAPLATA7
  SID Rwy 13/31 KUKEN7 SUROBO7 DORVO7 LAPLATA7 Textual Description
  SID S Rwy 13/31
  SID Rwy 13/31 Textual Description
Satellite photo at:
Airport distance calculator
From:
Weather Reports

METAR

SABE

SABE 290700Z 05006KT CAVOK 20/16 Q1017
SADF
10.6nm W
SADF 290700Z 05003KT CAVOK 17/16 Q1016
SAEZ
16.2nm S
SAEZ 290700Z 00000KT 6000 NSC 15/10 Q1017

TAF

SABE
TAF SABE 290500Z 2906/3006 02010KT CAVOK TX25/2918Z TN15/2909Z BECMG 2919/2921 09010KT
SADF
10.6nm W
TAF SADF 290500Z 2906/3006 05005KT CAVOK TX26/2918Z TN14/2909Z BECMG 2919/2921 09010KT
SAEZ
16.2nm S
TAF SAEZ 290500Z 2906/3006 VRB03KT 5000 BR NSC TX28/2919Z TN14/2909Z TEMPO 2906/2911 1000 BCFG FEW008 BECMG 2912/2915 35005KT 9999 NSW SCT040 BECMG 2921/2924 04005KT
SUCA
30.3nm NE
TAF SUCA 290230Z 2906/3006 10005KT CAVOK TX26/2918Z TN15/2910Z TEMPO 2906/2910 01008KT 5000 BR NSC BECMG 2911/2915 35010KT 9999 FEW026 BECMG 2916/2920 12012KT BECMG 3002/3006 03012KT
Safelog

 

Dauntless Aviation

© 2007-2015 Dauntless Aviation, all rights reserved
Information provided via PilotNav comes from a variety of official and unofficial data sources. As errors are possible, do not use PilotNav for primary flight planning purposes. Verify any information that you receive via PilotNav with current and canonical charts and other official documents. The material in this database is subject to database copyrights held by Dauntless Aviation and may not be copied without the express permission of Dauntless Aviation - licenses for use of part of all of this data are available for purchase; enquire via the Dauntless Aviation helpdesk. A number of mechanisms and markers exist in the database to protect against and identify infringement / copyright. Automated queries against this website are stictly prohibited, and all activity is logged and analyzed.